Regional Weather Roundup
Issued by NWS

Home | Current Version | Previous Version | Text Only | Print | Product List | Glossary Off
Versions: 1 2 3 4 5 6 7 8 9 10 11 12 13 14 15 16 17 18 19 20 21 22 23 24 25 26 27 28 29 30 31 32 33 34 35 36 37 38 39 40 41 42 43 44 45 46 47 48 49 50

000
ASUS43 KDMX 061201
RWRIA

WEATHER ROUNDUP FOR IOWA
NATIONAL WEATHER SERVICE DES MOINES IA
600 AM CST TUE DEC 06 2016

NOTE: "FAIR" INDICATES FEW OR NO CLOUDS BELOW 12,000 FEET WITH NO
SIGNIFICANT WEATHER AND/OR OBSTRUCTIONS TO VISIBILITY.

* - THESE STATIONS ARE NOT NWS STATIONS...THUS NOT UNDER NWS
QUALITY CONTROL.  THEY ALSO DO NOT REPORT WEATHER SUCH
AS PRECIPITATION OR FOG.

IAZ001>003-012>014-020>022-031>034-043>046-061300-
   NORTHWEST IOWA

CITY           SKY/WX    TMP DP  RH WIND       PRES   REMARKS
CARROLL *      CLEAR     25  18  74 NW16G28   29.89R WCI  12
CHEROKEE *     CLEAR     19  12  77 W10G25    29.90R WCI   7
DENISON *      PTCLDY    21  12  68 W12G18    29.90S WCI   9
LE MARS *      CLEAR     18  10  73 W12G20    29.92S WCI   5
ORANGE CITY *  CLEAR     18  12  79 W18G28    29.86S WCI   2
SHELDON *      CLOUDY    18  12  79 W21G29    29.84S WCI   1
SIOUX CITY     CLEAR     20  10  65 NW12      29.94R WCI   8
6HR MIN TEMP:  20; 6HR MAX TEMP:  31;

SPENCER        CLEAR     18  11  74 W29G35    29.85S WCI  -1
6HR MIN TEMP:  18; 6HR MAX TEMP:  30;

STORM LAKE *   PTCLDY    19  14  79 W25G31    29.86R WCI   2
$$

IAZ055>058-069>071-079>083-090>094-061300-
   SOUTHWEST IOWA

CITY           SKY/WX    TMP DP  RH WIND       PRES   REMARKS
ATLANTIC *     PTCLDY    27  18  69 NW15G21   29.93R WCI  15
AUDUBON *      CLEAR     25  18  74 NW10G20   29.90R WCI  15
CLARINDA *       N/A     30  23  74 N12       29.95R WCI  21
COUNCIL BLFS * CLEAR     25  16  68 NW14      29.95R WCI  13
CRESTON *      CLOUDY    28  21  74 NW20      29.90R WCI  15
HARLAN  *      CLEAR     23  14  68 NW15G22   29.97R WCI  10
LAMONI         CLOUDY    32  27  81 NW14      29.86R WCI  22
6HR MIN TEMP:  32; 6HR MAX TEMP:  37;

RED OAK *      PTCLDY    28  19  69 NW13G21   29.95R WCI  18
SHENANDOAH *   PTCLDY    28  18  64 NW15G22   29.96R WCI  17
$$

IAZ047>049-059>061-072>074-084-061300-
   CENTRAL IOWA

CITY           SKY/WX    TMP DP  RH WIND       PRES   REMARKS
AMES           CLOUDY    30  25  81 W18G26    29.86R WCI  18
6HR MIN TEMP:  30; 6HR MAX TEMP:  38; 6HR PCP:  0.01;

ANKENY *       CLOUDY    30 N/A N/A NW12G24   29.87R WCI  21
BOONE *        CLOUDY    27  21  80 NW14G23   29.85R WCI  15
CHARITON *       N/A     32  27  80 NW16G22   29.84R WCI  21
DES MOINES     CLOUDY    31  19  61 NW21      29.86S WCI  18
6HR MIN TEMP:  31; 6HR MAX TEMP:  40; 6HR PCP: TRACE;

GRINNELL*      CLOUDY    32  29  90 NW13      29.82F WCI  22
KNOXVILLE *    CLOUDY    32  27  80 NW14      29.82S WCI  22
MARSHALLTOWN   CLOUDY    31  28  89 NW17      29.81F WCI  19
6HR MIN TEMP:  31; 6HR MAX TEMP:  36; 6HR PCP: TRACE;

NEWTON *       CLOUDY    32  28  86 NW13G20   29.82F WCI  22
PELLA *        MOCLDY    32  28  85 NW13G18   29.84F WCI  23
PERRY *        CLOUDY    30  25  82 NW13      29.88R WCI  20
$$

IAZ004>006-015-016-023>025-035-036-061300-
   NORTH CENTRAL IOWA

CITY           SKY/WX    TMP DP  RH WIND       PRES   REMARKS
ALGONA *       CLOUDY    23  16  74 W22G28    29.83S WCI   8
CLARION *      CLOUDY    28  23  80 W23       29.83S WCI  14
ESTHERVILLE    CLEAR     18  13  80 W20       29.81F WCI   2
6HR MIN TEMP:  18; 6HR MAX TEMP:  31;

FORT DODGE *   CLOUDY    25  16  68 W8        29.86S WCI  16
MASON CITY     CLOUDY    27  23  85 W23       29.81S WCI  12
6HR MIN TEMP:  27; 6HR MAX TEMP:  34; 6HR PCP:  0.02;

WEBSTER CITY * CLOUDY    27  21  80 NW23G30   29.83R WCI  12
IOWA FALLS *   CLOUDY    31  26  84 W18G24    29.82F WCI  19
$$

IAZ007>011-017>019-026>030-037>042-050>054-066-061300-
   NORTHEAST IOWA

CITY           SKY/WX    TMP DP  RH WIND       PRES   REMARKS
CEDAR RAPIDS   FOG       33  33 100 S5        29.79F VSB 3/4 WCI  29
6HR MIN TEMP:  33; 6HR MAX TEMP:  33; 6HR PCP: TRACE;

CHARLES CITY * LGT SNOW  30  28  93 W16       29.79F WCI  19
CLINTON *      MIX PCPN  32  32 100 CALM      29.83R VSB 1/2
DECORAH *      LGT SNOW  32  32 100 VRB7      29.76S WCI  26
DUBUQUE        SNOW      31  31 100 S6        29.80R VSB 1/2 WCI  25
6HR MIN TEMP:  29; 6HR MAX TEMP:  32; 6HR PCP: TRACE;

MONTICELLO *   FOG       32  32 100 SE5       29.80S VSB 1/4 WCI  27
OELWEIN *      CLOUDY    32  32 100 W14       29.80R WCI  22
WATERLOO       CLOUDY    32  29  88 W9        29.80F WCI  24
6HR MIN TEMP:  32; 6HR MAX TEMP:  33;

$$

IAZ064-065-067-068-078-061300-
   EAST CENTRAL IOWA

CITY           SKY/WX    TMP DP  RH WIND       PRES   REMARKS
DAVENPORT      FOG       32  32 100 E3        29.82R VSB 1/4
6HR MIN TEMP:  32; 6HR MAX TEMP:  33;

IOWA CITY      CLOUDY    35  33  92 CALM      29.83S FOG
6HR MIN TEMP:  34; 6HR MAX TEMP:  35;

MUSCATINE *    CLOUDY    36  34  93 CALM      29.83R FOG
QUAD CITIES    FOG       34  32  92 CALM      29.82R VSB 3/4
6HR MIN TEMP:  34; 6HR MAX TEMP:  35;

$$

IAZ062-063-075>077-085>089-095>099-061300-
   SOUTHEAST IOWA

CITY           SKY/WX    TMP DP  RH WIND       PRES   REMARKS
BURLINGTON     CLOUDY    34  34 100 NW3       29.81S FOG
6HR MIN TEMP:  34; 6HR MAX TEMP:  36;

FAIRFIELD *    CLOUDY    36  36 100 W6        29.81S FOG     WCI  31
FORT MADISON * CLOUDY    36  34  93 CALM      29.82S FOG
KEOKUK *       CLOUDY    36  34  93 NW5       29.81S FOG     WCI  32
OSKALOOSA *    CLOUDY    33  31  94 N14       29.82F WCI  23
CENTERVILLE *  CLOUDY    34  32  93 NW17      29.84R WCI  23
OTTUMWA        CLOUDY    35  30  82 NW22      29.81S WCI  23
6HR MIN TEMP:  35; 6HR MAX TEMP:  37;

WASHINGTON *   CLOUDY    36  36 100 CALM      29.82S FOG
$$

ABBREVIATIONS USED IN REMARKS
   TC - TEMPERATURES IN CELSIUS
  WCI - WIND CHILL INDEX
   HX - HEAT INDEX
  VSB - VISIBILITY
$$




USA.gov is the U.S. government's official web portal to all federal, state and local government web resources and services.